Location: Aalen
(48.8330°N, 10.1000°E)
Time: 22:16:20
(UTC+02:00)

Transit 2A - Pass Details

Date: 07 August 2021
Orbit: 594 x 964 km, 66.7° (Epoch: 27 September)

Event Time Altitude Azimuth Distance (km) Brightness Sun altitude
Rises 08:59:29 0° 282° (WNW) 2,948 8.5 27.6°
Reaches altitude 10° 09:02:50 10° 309° (NW) 2,105 7.9 28.2°
Maximum altitude 09:05:17 14° 340° (NNW) 1,915 7.9 28.6°
Drops below altitude 10° 09:07:49 10° 11° (N) 2,220 8.5 29.0°
Sets 09:11:33 0° 37° (NE) 3,238 9.6 29.6°
